Location: *
(50.0228°S, 177.2688°W)
Time: 06:04:45
(UTC+00:00)

Mayak - Pass Details

Date: 07 April 2020
Orbit: 581 x 601 km, 97.5° (Epoch: 29 May)

Event Time Altitude Azimuth Distance (km) Brightness Sun altitude
Exits shadow 07:52:10 11° 160° (SSE) 1,899 ? -24.5°
Drops below altitude 10° 07:52:24 10° 162° (SSE) 1,962 ? -24.6°
Sets 07:55:09 0° 180° (S) 2,877 ? -25.0°
